Location: Newark
(52.5294°N, 13.6892°E)
Time: 09:18:46
(UTC+00:00)

ISS - Visible Passes

Search period start: 18 January 2020 00:00
Search period end: 28 January 2020 00:00
Orbit: 415 x 421 km, 51.6° (Epoch: 18 January)

Date Brightness Start Highest point End Pass type
(mag) Time Alt. Az. Time Alt. Az. Time Alt. Az.
21 Jan -1.0 18:13:35 10° SSW 18:14:05 13° SSW 18:14:05 13° SSW visible
22 Jan -1.8 17:26:13 10° S 17:28:17 17° SSE 17:28:17 17° SSE visible
23 Jan -1.4 16:39:18 10° SSE 16:40:45 12° SE 16:42:12 10° ESE visible
23 Jan -1.8 18:13:41 10° SW 18:15:21 25° SW 18:15:21 25° SW visible
24 Jan -2.7 17:25:55 10° SW 17:28:57 32° SSE 17:29:24 30° SE visible
24 Jan -0.4 19:02:07 10° WSW 19:02:20 11° WSW 19:02:20 11° WSW visible
25 Jan -2.1 16:38:18 10° SSW 16:41:04 24° SSE 16:43:24 12° E visible
25 Jan -2.4 18:14:08 10° WSW 18:16:20 37° SW 18:16:20 37° SW visible
26 Jan -3.4 17:26:11 10° WSW 17:29:28 53° SSE 17:30:18 40° ESE visible
26 Jan -0.5 19:02:46 10° W 19:03:14 13° W 19:03:14 13° W visible
27 Jan -2.9 16:38:17 10° SW 16:41:29 41° SSE 16:44:13 13° E visible
27 Jan -2.7 18:14:43 10° W 18:17:09 44° WSW 18:17:09 44° WSW visible
